Flag for West Bank Weather past 2 weeks in Hebron, West Bank

Now
79 °F

Clear.


Feels Like: 79 °F
Forecast: 65 / 83 °F
Wind: 5 mph from East

Location: Ben Gurion International Airport


UV Index: 7 (High)

Visibility: 10 mi


Pressure: 29.89 "Hg

Humidity: 30%

Dew point: 45 °F

Location of HebronLocation

Historic Weather in Hebron

°F

Hebron temperature yesterday

Maximum temperature yesterday: 77 °F (at 11:20 AM)
Minimum temperature yesterday: 61 °F (at 2:50 AM)
Average temperature yesterday: 69 °F

Past Weeks' High & Low Weather Summary

 TemperatureHumidityPressure
High93 °F (Apr 18, 5:20 PM)88% (Apr 5, 2:50 AM)30.15 "Hg (Apr 5, 2:50 AM)
Low52 °F (Apr 5, 5:50 AM)20% (Apr 6, 11:50 AM)29.80 "Hg (Apr 16, 2:50 AM)
Average68 °F59%29.97 "Hg
* Reported Apr 3 8:20 PM — Apr 18 8:50 PM, Hebron, Weather by CustomWeather, © 2014

Note: Actual official high and low records may vary slightly from our data, if they occured in-between our weather recording intervals... More about our weather records

Advertising

Historic Weather Conditions — Data for Previous 24 hours

 ConditionsComfort  
Time TempWeatherWind HumidityBarometerVisibility
8:50 PM
Apr 18
81 °FClear.7 mph30%29.89 "Hg10 mi
8:20 PM81 °FClear.7 mph30%29.89 "Hg10 mi
7:50 PM82 °FSunny.8 mph28%29.89 "Hg10 mi
7:20 PM84 °FSunny.7 mph27%29.89 "Hg10 mi
6:50 PM86 °FSunny.8 mph25%29.89 "Hg10 mi
6:20 PM88 °FSunny.7 mph24%29.89 "Hg10 mi
5:50 PM91 °FSunny.2 mph21%29.89 "Hg10 mi
5:20 PM93 °FSunny.2 mph20%29.89 "Hg10 mi
4:20 PM88 °FPassing clouds.6 mph24%29.92 "HgN/A
3:50 PM88 °FSunny.6 mph24%29.92 "Hg10 mi
3:20 PM88 °FSunny.7 mph25%29.92 "Hg10 mi
2:50 PM88 °FSunny.9 mph25%29.92 "Hg10 mi
2:20 PM88 °FSunny.5 mph25%29.92 "Hg10 mi
1:50 PM88 °FPassing clouds.7 mph22%29.92 "HgN/A
1:20 PM88 °FSunny.3 mph22%29.92 "Hg10 mi
12:50 PM86 °FPassing clouds.5 mph24%29.92 "HgN/A
12:20 PM84 °FPassing clouds.7 mph25%29.92 "HgN/A
11:50 AM84 °FPassing clouds.5 mph23%29.95 "HgN/A
11:20 AM81 °FPassing clouds.7 mph28%29.95 "HgN/A
10:50 AM79 °FPassing clouds.6 mph28%29.95 "HgN/A
10:20 AM77 °FPassing clouds.5 mph28%29.95 "HgN/A
9:50 AM75 °FSunny.5 mph31%29.95 "Hg10 mi
9:20 AM73 °FPassing clouds.5 mph38%29.95 "HgN/A
8:50 AM70 °FSunny.3 mph50%29.95 "Hg10 mi
8:20 AM66 °FSunny.7 mph64%29.95 "Hg10 mi
7:50 AM64 °FSunny.6 mph73%29.95 "Hg10 mi
7:20 AM63 °FSunny.3 mph77%29.95 "Hg10 mi
6:50 AM61 °FClear.2 mph83%29.92 "Hg10 mi
6:20 AM61 °FClear.3 mph83%29.92 "Hg10 mi
5:50 AM61 °FClear.5 mph83%29.92 "Hg10 mi
5:20 AM61 °FClear.7 mph83%29.92 "Hg10 mi
4:50 AM61 °FClear.7 mph83%29.89 "Hg10 mi
4:20 AM61 °FPassing clouds.7 mph83%29.89 "HgN/A
3:50 AM61 °FPassing clouds.6 mph83%29.92 "HgN/A
3:20 AM61 °FPassing clouds.6 mph83%29.92 "HgN/A
2:20 AM63 °FPassing clouds.6 mph77%29.92 "HgN/A
1:50 AM63 °FPassing clouds.6 mph77%29.92 "HgN/A
1:20 AM63 °FPassing clouds.5 mph77%29.92 "HgN/A
12:50 AM64 °FPassing clouds.3 mph78%29.92 "HgN/A
12:20 AM63 °FPassing clouds.No wind88%29.92 "HgN/A
11:50 PM
Apr 17
63 °FPassing clouds.2 mph83%29.89 "HgN/A
11:20 PM64 °FPassing clouds.3 mph78%29.89 "HgN/A
10:50 PM64 °FPassing clouds.2 mph78%29.89 "HgN/A
10:20 PM64 °FPassing clouds.5 mph83%29.89 "HgN/A
9:50 PM64 °FPassing clouds.3 mph78%29.89 "HgN/A
9:20 PM66 °FPassing clouds.6 mph73%29.89 "HgN/A
Weather by CustomWeather, © 2014

See weather overview